[TLELIST] Archives

 

[list_settings.list_name] Current TLEs

March 11th 2012 PST

HST 1 20580U 90037B 12071.20829494 .00002262 00000-0 15488-3 0 9602 2 20580 028.4697 064.6058 0003451 100.3698 259.7321 15.02259343999989 ISS (ZARYA) 1 25544U 98067A 12071.35812925 .00022494 00000-0 28685-3 0 1665 2 25544 051.6404 252.5922 0017577 143.7590 286.0889 15.59036392762767 CXO 1 25867U 99040B 12071.08333333 -.00000028 00000-0 00000+0 0 7119 2 25867 071.6410 012.0483 8748050 277.8849 359.4458 00.37806776 8789 ____________________________________________________________________ These 2-Line ...Continue Reading

[list_settings.list_name] Current TLEs

March 10th 2012 PST

HST 1 20580U 90037B 12070.21176293 .00002123 00000-0 14465-3 0 9592 2 20580 028.4697 071.1235 0003374 089.1913 270.9246 15.02254615999839 ISS (ZARYA) 1 25544U 98067A 12070.14680793 .00020696 00000-0 26509-3 0 1606 2 25544 051.6411 258.6756 0017727 139.1176 327.7289 15.58974112762579 CXO 1 25867U 99040B 12071.08333333 -.00000028 00000-0 00000+0 0 7119 2 25867 071.6410 012.0483 8748050 277.8849 359.4458 00.37806776 8789 ____________________________________________________________________ These 2-Line ...Continue Reading

[list_settings.list_name] Current TLEs

March 9th 2012 PST

HST 1 20580U 90037B 12068.28511873 .00001749 00000-0 11696-3 0 9588 2 20580 028.4699 083.7260 0003334 068.9947 291.1075 15.02245874999546 ISS (ZARYA) 1 25544U 98067A 12069.11980714 .00018689 00000-0 24053-3 0 1541 2 25544 051.6413 263.8320 0017773 135.4419 323.7930 15.58923824762412 CXO 1 25867U 99040B 12068.41666667 .00000171 00000-0 00000+0 0 7108 2 25867 071.6163 012.2336 8743360 277.8918 356.4293 00.37800036 8775 ____________________________________________________________________ These 2-Line ...Continue Reading

[list_settings.list_name] Current TLEs

March 8th 2012 PST

HST 1 20580U 90037B 12068.28511873 .00001749 00000-0 11696-3 0 9588 2 20580 028.4699 083.7260 0003334 068.9947 291.1075 15.02245874999546 ISS (ZARYA) 1 25544U 98067A 12068.26423611 .00017178 00000-0 22200-3 0 1515 2 25544 051.6417 268.1279 0017750 132.4111 202.0841 15.58884423762273 CXO 1 25867U 99040B 12068.41666667 .00000171 00000-0 00000+0 0 7108 2 25867 071.6163 012.2336 8743360 277.8918 356.4293 00.37800036 8775 ____________________________________________________________________ These 2-Line ...Continue Reading

[list_settings.list_name] Current TLEs

March 7th 2012 PST

HST 1 20580U 90037B 12067.22213806 .00001666 00000-0 11086-3 0 9576 2 20580 028.4697 090.6830 0003293 057.2373 302.8549 15.02242075999380 ISS (ZARYA) 1 25544U 98067A 12067.19770030 .00016658 00000-0 21584-3 0 1455 2 25544 051.6402 273.4871 0017649 128.1049 337.0854 15.58844125762114 CXO 1 25867U 99040B 12065.79166667 +.00000158 +00000-0 +00000-0 0 07095 2 25867 071.5836 012.4168 8743476 277.9104 359.0057 00.37802370008761 ____________________________________________________________________ These 2-Line ...Continue Reading

[list_settings.list_name] Current TLEs

March 5th 2012 PST

HST 1 20580U 90037B 12062.23938345 +.00001896 +00000-0 +12794-3 0 09543 2 20580 028.4701 123.2743 0003167 005.6126 354.4532 15.02228473998633 ISS (ZARYA) 1 25544U 98067A 12063.87873843 +.00000869 +00000-0 +17673-4 0 01263 2 25544 051.6403 290.1492 0018025 117.6364 070.3487 15.58714737761597 CXO 1 25867U 99040B 12063.16666667 -.00000052 +00000-0 +00000-0 0 07082 2 25867 071.5467 012.6781 8743659 277.8894 001.6159 00.37803054008754 ____________________________________________________________________ These 2-Line ...Continue Reading

[list_settings.list_name] Current TLEs

March 4th 2012 PST

HST 1 20580U 90037B 12062.23938345 +.00001896 +00000-0 +12794-3 0 09543 2 20580 028.4701 123.2743 0003167 005.6126 354.4532 15.02228473998633 ISS (ZARYA) 1 25544U 98067A 12062.91488426 +.00013143 +00000-0 +17263-3 0 01203 2 25544 051.6429 294.9853 0018021 113.4041 062.4407 15.58702175761441 CXO 1 25867U 99040B 12063.16666667 -.00000052 +00000-0 +00000-0 0 07082 2 25867 071.5467 012.6781 8743659 277.8894 001.6159 00.37803054008754 ____________________________________________________________________ These 2-Line ...Continue Reading

[list_settings.list_name] Current TLEs

March 3rd 2012 PST

HST 1 20580U 90037B 12061.24282834 .00001756 00000-0 11752-3 0 9535 2 20580 028.4698 129.7927 0003125 355.7915 004.2744 15.02224665998489 ISS (ZARYA) 1 25544U 98067A 12061.95745370 +.00008004 +00000-0 +10795-3 0 01146 2 25544 051.6419 299.7906 0017939 109.5452 090.3050 15.58668471761298 CXO 1 25867U 99040B 12063.16666667 -.00000052 +00000-0 +00000-0 0 07082 2 25867 071.5467 012.6781 8743659 277.8894 001.6159 00.37803054008754 ____________________________________________________________________ These 2-Line ...Continue Reading

[list_settings.list_name] Current TLEs

March 2nd 2012 PST

HST 1 20580U 90037B 12061.24282834 .00001756 00000-0 11752-3 0 9535 2 20580 028.4698 129.7927 0003125 355.7915 004.2744 15.02224665998489 ISS (ZARYA) 1 25544U 98067A 12 61.60134719 .00019589 00000-0 24753-3 0 1124 2 25544 051.6415 301.5814 0017720 106.9991 253.3471 15.58676725165344 CXO 1 25867U 99040B 12060.50000000 -.00000267 +00000-0 +00000-0 0 07088 2 25867 071.5276 012.8921 8741965 277.8896 358.5254 00.37799182008745 ____________________________________________________________________ These 2-Line ...Continue Reading

[list_settings.list_name] Current TLEs

March 1st 2012 PST

HST 1 20580U 90037B 12061.24282834 .00001756 00000-0 11752-3 0 9535 2 20580 028.4698 129.7927 0003125 355.7915 004.2744 15.02224665998489 ISS (ZARYA) 1 25544U 98067A 12061.48369057 .00032523 00000-0 41663-3 0 1093 2 25544 051.6436 302.1683 0017919 107.3453 312.3860 15.58688840761224 CXO 1 25867U 99040B 12060.50000000 -.00000267 +00000-0 +00000-0 0 07088 2 25867 071.5276 012.8921 8741965 277.8896 358.5254 00.37799182008745 ____________________________________________________________________ These 2-Line ...Continue Reading
  • This mailing list is a public mailing list - anyone may join or leave, at any time.
  • This mailing list is announce-only.

International Space Station (ISS) / Hubble Space Telescope (HST) / Chandra X-Ray Observatory Orbital Data via EMAIL

Privacy Policy:

Private list